Regional Weather Roundup
Issued by NWS

Home | Current Version | Previous Version | Graphics & Text | Print | Product List | Glossary On
Versions: 1 2 3 4 5 6 7 8 9 10 11 12 13 14 15 16 17 18 19 20 21 22 23 24 25 26 27 28 29 30 31 32 33 34 35 36 37 38 39 40 41 42 43 44 45 46 47 48 49 50
000
ASUS43 KOAX 262310
RWRNE

WEATHER ROUNDUP FOR NEBRASKA
NATIONAL WEATHER SERVICE OMAHA NE
600 PM CDT FRI MAY 26 2017

NOTES: SATELLITE DATA IS BEING USED TO AUGMENT CLOUD COVER ABOVE
       12000 FEET.
       "FAIR" INDICATES FEW OR NO CLOUDS BELOW 12,000 FEET WITH NO
       SIGNIFICANT WEATHER AND/OR OBSTRUCTIONS TO VISIBILITY.

  * THESE STATIONS DO NOT REPORT WEATHER SUCH AS RAIN...SNOW OR FOG.

NEZ001>004-019>022-054>056-270000-
NEBRASKA PANHANDLE

CITY           SKY/WX    TMP DP  RH WIND       PRES   REMARKS
SCOTTSBLUFF    LGT RAIN  61  49  64 NE16      29.88F
ALLIANCE       LGT RAIN  60  48  64 NW8       29.91R
CHADRON        LGT RAIN  60  46  59 N3        29.90R
GORDON         CLOUDY    65  38  36 CALM      29.91R
KIMBALL        LGT RAIN  63  46  54 NW7G21    29.89R
SIDNEY         CLOUDY    66  46  48 SE18G25   29.88F
$$

NEZ057>060-069>072-079>082-270000-
SOUTHWEST NEBRASKA

CITY           SKY/WX    TMP DP  RH WIND       PRES   REMARKS
NORTH PLATTE   SUNNY     75  46  35 E8        29.86S
IMPERIAL       CLOUDY    69  47  45 S10       29.87R
LEXINGTON      SUNNY     74  51  44 NE6       29.86S
MCCOOK         SUNNY     76  47  35 E10       29.85S
OGALLALA       CLOUDY    72  44  36 SE7       29.87S
$$

NEZ005>010-023>029-035>040-094-270000-
NORTH CENTRAL NEBRASKA

CITY           SKY/WX    TMP DP  RH WIND       PRES   REMARKS
VALENTINE      SUNNY     72  37  28 NE9       29.87F
AINSWORTH      SUNNY     69  43  38 NW5       29.88F
BROKEN BOW     SUNNY     73  45  36 SE8       29.87S
O`NEILL        SUNNY     72  41  33 NW7       29.88S
ORD            SUNNY     74  42  31 NE5       29.85S
THEDFORD       SUNNY     73  43  34 E6        29.89S
$$

NEZ041-046>049-061>064-073>077-083>087-270000-
SOUTH CENTRAL NEBRASKA

CITY           SKY/WX    TMP DP  RH WIND       PRES   REMARKS
GRAND ISLAND   SUNNY     77  47  34 NE5       29.85S
AURORA         SUNNY     78  43  29 NE5       29.84S
HASTINGS       SUNNY     78  48  34 NE10      29.86S
HEBRON         SUNNY     82  45  27 NE3       29.82S
HOLDREGE       SUNNY     75  44  33 SE7       29.85F
KEARNEY *      SUNNY     75  46  35 NW5       29.86S
YORK           SUNNY     77  46  33 NE7       29.84S
$$

NEZ011>018-030>034-042>045-270000-
NORTHEAST NEBRASKA

CITY           SKY/WX    TMP DP  RH WIND       PRES   REMARKS
NORFOLK        SUNNY     75  43  31 N10       29.83S
ALBION         SUNNY     75  40  28 N3        29.85F
BLAIR          SUNNY     78  50  37 N7        29.81S
FREMONT        SUNNY     80  46  30 NW10      29.82S
TEKAMAH        SUNNY     81  46  29 N12       29.80S
WAYNE          SUNNY     76  44  32 NW7       29.84S
$$

NEZ050>053-065>068-078-088>093-270000-
SOUTHEAST NEBRASKA

CITY           SKY/WX    TMP DP  RH WIND       PRES   REMARKS
LINCOLN        SUNNY     81  50  33 NE9G18    29.82S
OMAHA EPPLEY   MOSUNNY   81  49  32 NW8       29.80S
BEATRICE       SUNNY     82  49  32 N7        29.82R
FALLS CITY     MOSUNNY   83  60  45 VRB5      29.77R
NEBRASKA CITY  SUNNY     81  44  26 N12       29.81R
PLATTSMOUTH    SUNNY     80  47  30 N8        29.81S
$$

NEZ044-045-051>053-067-270000-
OMAHA AREA

CITY           SKY/WX    TMP DP  RH WIND       PRES   REMARKS
OMAHA EPPLEY   MOSUNNY   81  49  32 NW8       29.80S
BLAIR          SUNNY     78  50  37 N7        29.81S
FREMONT        SUNNY     80  46  30 NW10      29.82S
MILLARD        SUNNY     81  53  37 N5        29.81S
OFFUTT AFB     SUNNY     79  51  36 N7        29.80R
PLATTSMOUTH    SUNNY     80  47  30 N8        29.81S
WAHOO          FAIR      80  44  28 N9        29.81S
$$



USA.gov is the U.S. government's official web portal to all federal, state and local government web resources and services.